{"data":{"norad_id":46128,"intl_designator":"2020-057M","name":"STARLINK-1622","alt_names":[],"object_type":"PAYLOAD","status":"ACTIVE","operator":null,"country":"US","launch_date":"2020-08-18","launch_site_code":"AFETR","launch_vehicle":null,"mission":null,"orbit_class":"UNKNOWN","rcs_meters":null,"size_class":null,"mass_kg":null,"dimensions":null,"purposes":["comms"],"wikipedia_slug":null,"has_3d_model":false,"image_url":null,"decayed_at":null,"tle_current":{"epoch":"2026-05-24T21:10:13.312128Z","epoch_age_seconds":81296,"freshness":"FRESH","line1":"1 46128U 20057M   26144.88209852  .00129989  00000+0  69290-3 0  9990","line2":"2 46128  53.0163 206.3425 0006875  13.9768 346.1442 15.79517613319342","mean_motion":15.79517613,"eccentricity":0.0006875,"inclination_deg":53.0163,"raan_deg":206.3425,"arg_perigee_deg":13.9768,"mean_anomaly_deg":346.1442,"bstar":0.0006929,"rev_number":31934,"period_min":91.167074564302,"perigee_km":327.19335246993,"apogee_km":336.41952469798,"semimajor_km":6709.943438584,"source":"CELESTRAK","updated_at":"2026-05-25T13:38:16.466017Z"}}}